sat.trackr.live / text

‹ back to catalog

STARLINK-34924

NORAD 65469 · 2025-195M

PAYLOAD ACTIVE UNKNOWN

§ Identity

Operator
Country
US
Launch date
2025-09-03
Launch site
AFETR
Launch vehicle
Mass (kg)
RCS (m²)

Purposes: comms

External: N2YO · Heavens-Above · Gunter

§ Orbital elements

Epoch: 2026-09-20T04:16:03.270432Z

Period
93.85 min
Inclination
53.1587°
Eccentricity
0.0001325
Mean motion
15.34398422 rev/d
Perigee alt
461.8 km
Apogee alt
463.6 km
Semi-major
6,840.8 km
B*
2.2050e-4
RAAN
71.0466°
Arg perigee
75.8704°
Mean anomaly
284.2446°
Rev number
5,982

§ Raw data

STARLINK-349241 65469U 25195M   26263.17781563  .00007080  00000+0  22050-3 0  99952 65469  53.1587  71.0466 0001325  75.8704 284.2446 15.34398422 59822

JSON: /api/v1/satellites/65469 · /tle

For live sub-satellite position, see the globe view (requires WebGL).

§ Visibility from observer

Set your observer location to see the next 7 days of passes ≥ 10°. The values pass through the URL so the page stays shareable.

No JS? Fill the form by hand. The geolocation button needs JavaScript.